Location: Aufkirchen
(47.9603°N, 11.3653°E)
Time: 15:45:12
(UTC+01:00)

Courier 1B Rocket - Pass Details

Date: 03 December 2020
Orbit: 920 x 1202 km, 28.2° (Epoch: 17 January)

Event Time Altitude Azimuth Distance (km) Brightness Sun altitude
Exits shadow 04:39:55 11° 193° (SSW) 3,010 7.4 -30.2°
Maximum altitude 04:43:03 14° 168° (SSE) 2,798 7.5 -29.7°
Drops below altitude 10° 04:46:52 10° 138° (SE) 3,127 8.1 -29.1°
Sets 04:51:17 0° 116° (ESE) 4,078 9.2 -28.3°
